St. SADURNÍ D'OSORMORT (Osona)





Hora UTC 01:45
Temperatura 7.1 ºC
Humedad 90.5 %
Pluja 0.0 mm
Velocidad viento 0.0 km/h
Dirección viento NNE

Datos diarios 2024-04-18



Hora UTC (invierno +1h; verano +2h)
Temperatura (ºC) Humedad (%) Velocidad viento (km/h) Precipitación (mm)
Hora UTC Aire Humedad Vel. Dir. Vel. Max Dir. Intent. máx 5 min.
00:05 8.0 86.9 0.0 NNE 0.0 SE 0.0
00:10 7.7 87.1 0.0 NNE 0.0 SE 0.0
00:15 7.5 87.4 0.0 NNE 0.0 SE 0.0
00:20 7.4 87.9 0.0 NNE 0.0 SE 0.0
00:25 7.2 87.9 0.0 NNE 0.0 SE 0.0
00:30 7.2 88.8 0.0 NNE 0.0 SE 0.0
00:35 7.2 89.0 0.0 NNE 0.0 SE 0.0
00:40 7.1 89.3 0.0 NNE 0.0 SE 0.0
00:45 7.0 89.3 0.0 NNE 0.0 SE 0.0
00:50 7.1 89.7 0.0 NNE 0.0 SE 0.0
00:55 7.0 89.6 0.0 NNE 0.0 SE 0.0
01:00 7.0 89.9 0.3 E 3.4 SE 0.0
01:05 6.9 89.7 0.2 ENE 3.4 ENE 0.0
01:10 6.9 90.2 0.0 NNE 0.0 ENE 0.0
01:15 7.0 90.4 0.0 NNE 0.0 ENE 0.0
01:20 7.0 90.5 0.0 NNE 0.0 ENE 0.0
01:25 7.0 90.5 0.0 NNE 0.0 ENE 0.0
01:30 7.1 90.6 0.0 NNE 0.0 ENE 0.0
01:35 7.2 90.8 0.0 NNE 0.0 ENE 0.0
01:40 7.2 90.7 0.0 NNE 0.0 ENE 0.0
01:45 7.1 90.5 0.0 NNE 0.0 ENE 0.0
Máxima 8.0 90.8 0.3 E 3.4 ENE 0.0
Mínima 6.8 86.9
Total 0.0